TimePST,TemperatureF,Dew PointF,Humidity,Sea Level PressureIn,VisibilityMPH,Wind Direction,Wind SpeedMPH,Gust SpeedMPH,PrecipitationIn,Events,Conditions,WindDirDegrees,DateUTC
12:54 AM,37.9,35.1,89,30.17,10.0,South,6.9,-,N/A,,Overcast,170,2012-12-28 08:54:00
1:54 AM,37.9,35.1,89,30.16,10.0,South,9.2,-,N/A,,Overcast,170,2012-12-28 09:54:00
2:54 AM,39.0,34.0,82,30.16,10.0,SSW,8.1,-,N/A,,Overcast,200,2012-12-28 10:54:00
3:54 AM,37.9,34.0,86,30.14,10.0,SSW,8.1,-,N/A,,Clear,200,2012-12-28 11:54:00
4:54 AM,37.9,34.0,86,30.12,10.0,SSE,8.1,-,N/A,,Clear,160,2012-12-28 12:54:00
5:54 AM,36.0,34.0,93,30.12,10.0,SSE,3.5,-,N/A,,Overcast,150,2012-12-28 13:54:00
6:54 AM,37.0,34.0,89,30.11,10.0,ESE,3.5,-,N/A,,Mostly Cloudy,110,2012-12-28 14:54:00
7:54 AM,37.0,33.1,86,30.12,10.0,SSE,4.6,-,N/A,,Overcast,150,2012-12-28 15:54:00
8:54 AM,37.0,35.1,93,30.12,10.0,Calm,Calm,-,N/A,,Overcast,0,2012-12-28 16:54:00
9:54 AM,37.4,35.6,93,30.13,10.0,Calm,Calm,-,N/A,,Overcast,0,2012-12-28 17:54:00
10:54 AM,39.9,35.1,83,30.14,10.0,ESE,3.5,-,N/A,,Overcast,110,2012-12-28 18:54:00
11:54 AM,42.1,34.0,73,30.13,10.0,SE,4.6,-,N/A,,Overcast,130,2012-12-28 19:54:00
12:54 PM,43.0,36.0,76,30.12,10.0,East,3.5,-,N/A,,Overcast,90,2012-12-28 20:54:00
1:54 PM,45.0,35.1,68,30.12,10.0,Calm,Calm,-,N/A,,Overcast,0,2012-12-28 21:54:00
2:54 PM,44.1,37.0,76,30.12,10.0,NNE,3.5,-,N/A,,Overcast,30,2012-12-28 22:54:00
3:54 PM,43.0,37.9,82,30.12,10.0,North,3.5,-,N/A,,Overcast,10,2012-12-28 23:54:00
4:54 PM,41.0,39.0,93,30.12,10.0,North,4.6,-,N/A,,Overcast,360,2012-12-29 00:54:00
5:54 PM,39.9,37.9,93,30.12,10.0,North,4.6,-,N/A,,Overcast,360,2012-12-29 01:54:00
6:54 PM,39.0,37.0,93,30.12,10.0,NNE,3.5,-,N/A,,Mostly Cloudy,20,2012-12-29 02:54:00
7:54 PM,37.9,36.0,93,30.12,10.0,NNW,4.6,-,N/A,,Mostly Cloudy,340,2012-12-29 03:54:00
8:54 PM,37.0,36.0,96,30.13,10.0,Calm,Calm,-,N/A,,Mostly Cloudy,0,2012-12-29 04:54:00
9:54 PM,37.0,36.0,96,30.14,10.0,Calm,Calm,-,N/A,,Mostly Cloudy,0,2012-12-29 05:54:00
10:54 PM,36.0,35.1,97,30.16,10.0,Calm,Calm,-,N/A,,Mostly Cloudy,0,2012-12-29 06:54:00
11:54 PM,36.0,35.1,97,30.16,5.0,Calm,Calm,-,0.00,Snow,Light Snow,0,2012-12-29 07:54:00